User: anonymous   Login
Location: Olmeneta
(45.2333°N, 10.0167°E)
Time: 12:36:20
(UTC+00:00)
Language:

Cosmos 1515 - Orbit

View from above orbital plane
View from above orbital plane
View from above satellite
View from above satellite

Ground track
Ground track

The orbit data is extracted from the following two-line orbital elements,

1 14551U 83122A   21137.59838541  .00000810  00000-0  37480-4 0  9994
2 14551  82.5007 197.6153 0007204  15.8962  99.8827 15.18710002786814
Epoch (UTC): 17 May 2021 14:21:40
Eccentricity: 0.0007204
inclination: 82.5007°
perigee height: 505 km
apogee height: 515 km
right ascension of ascending node: 197.6153°
argument of perigee: 15.8962°
revolutions per day: 15.18710002
mean anomaly at epoch: 99.8827°
orbit number at epoch: 78681

The dashed part of the orbit path shows where the satellite is in the earth's shadow,  

DLR